Weather Roundup
Issued by NWS Chicago, IL

Home | Current Version | Previous Version | Text Only | Print | Product List | Glossary Off
Versions: 1 2 3 4 5 6 7 8 9 10 11 12 13 14 15 16 17 18 19 20 21 22 23 24 25 26 27 28 29 30 31 32 33 34 35 36 37 38 39 40 41 42 43 44 45 46 47 48 49 50

000
NZUS59 KLOT 021558
HRRLOT

CHICAGO AREA WEATHER ROUNDUP
NATIONAL WEATHER SERVICE CHICAGO/ROMEOVILLE IL
1000 AM CST MON MAR 02 2015

NOTE: "FAIR" INDICATES FEW OR NO CLOUDS BELOW 12,000 FEET WITH NO
SIGNIFICANT WEATHER AND/OR OBSTRUCTIONS TO VISIBILITY.

* THESE STATIONS ARE NOT UNDER NWS QUALITY CONTROL. THEY ALSO MAY NOT
  REPORT WEATHER SUCH AS PRECIPITATION OR FOG.

ILZ005-006-012>014-019>023-021700-
NORTHEAST ILLINOIS

CITY           SKY/WX    TMP DP  RH WIND       PRES   REMARKS
OHARE          MOSUNNY   24  11  57 N7        30.50S WCI  16
MIDWAY         NOT AVBL
AURORA         SUNNY     18  10  71 NW6       30.53R WCI  10
WAUKEGAN       NOT AVBL
DUPAGE AIRPORT SUNNY     24  12  60 N6        30.50S WCI  17
WHEELING       SUNNY     24  11  57 NW8       30.52S WCI  15
NORTHERLY IS     N/A     26  13  57 NE6         N/A  WCI  20
$$

WIZ051-052-058>065-066-070>072-021700-
SOUTHEAST WISCONSIN

CITY           SKY/WX    TMP DP  RH WIND       PRES   REMARKS
MILWAUKEE      SUNNY     23   9  55 NW7       30.49S WCI  15
WAUKESHA       SUNNY     18   9  68 NW7       30.49F WCI   8
$$

INZ001>003-010>013-019-020-021700-
NORTHWEST INDIANA

CITY           SKY/WX    TMP DP  RH WIND       PRES   REMARKS
GARY*          MOSUNNY   27  10  50 N8        30.52S WCI  18
MICHIGAN CITY* NOT AVBL
RENSSELAER*    NOT AVBL
$$

LMZ740>746-021700-
SOUTHERN LAKE MICHIGAN

STATION/POSITION TIME  SKY/WX   TEMP WIND        PRES    VSBY
                                AIR  DIR/SP/G
                 (UTC)          (F)  (DEG/KT/KT) (MB)    (MI)
HARRISON CRIB    1500            21  310/ 11/ 13   N/A
BURNHAM HARBOR   1500            26  340/  3/ 11   N/A
CALUMET HARBOR   1500            25  340/  5/  7 1031.9R
BURNS HARBOR     NOT AVBL
MICHIGAN CITY    1500            18  230/  7/  9   N/A
$$

ABBREVIATIONS USED IN REMARKS
   TC - TEMPERATURE IN CELSIUS
  WCI - WIND CHILL INDEX
   HX - HEAT INDEX
  VSB - VISIBILITY
$$


USA.gov is the U.S. government's official web portal to all federal, state and local government web resources and services.